[[{"header":{"parameterUnit":"m.s-1","parameterCategory":1,"la1":30.2991,"la2":30.254,"lo1":-89.0895,"lo2":-89.0444,"dy":0.0017,"dx":0.0017,"nx":28,"ny":28,"refTime":"2026-01-05T09:00:00:Z","depth":0,"parameterNumber":2,"parameterNumberName":"U-component_of_WINDS"},"data":[0,0,0,0,0,0,0,0,0,0,0,0,0,0,0,0,0,0,0,0,0,0,0,0,0,0,0,0,0,0,0,0,0,0,0,0,0,0,0,0,0,0,0,0,0,0,0,0,0,0,0,0,0,0,0,0,0,0,-1.8758,-1.8759,0,-1.8833,-1.8834,-1.8835,-1.8826,-1.8825,-1.8824,-1.8823,-1.8901,-1.8904,-1.8907,0,0,0,0,0,0,0,0,0,0,0,0,0,-1.8609,-1.8612,-1.8758,-1.8759,-1.876,-1.8833,-1.8834,-1.8835,-1.8827,-1.8825,-1.8824,-1.8822,-1.89,-1.8904,-1.8908,0,0,0,0,0,0,0,0,0,0,0,0,0,-1.8678,-1.8613,-1.8758,-1.8764,-1.8766,-1.8833,-1.8834,-1.8835,-1.8827,-1.8825,-1.8823,-1.8822,-1.8899,-1.8903,-1.8908,-1.8974,0,0,-1.8923,-1.8925,0,0,0,0,0,0,0,0,-1.8674,-1.8684,-1.8762,-1.8764,-1.8766,-1.8819,-1.881,-1.8882,-1.8827,-1.8804,-1.8823,-1.8821,-1.8875,-1.8882,-1.89,-1.8977,-1.8981,-1.8923,-1.8926,-1.8928,-1.8929,0,0,0,0,0,0,0,-1.867,-1.868,-1.8788,-1.8764,-1.8766,-1.8764,-1.8772,-1.8824,-1.8849,-1.8806,-1.8805,-1.8814,-1.8876,-1.8895,-1.8902,-1.8982,-1.8923,-1.8927,-1.893,-1.8932,-1.9119,-1.9121,0,0,0,0,0,0,-1.8663,-1.8676,-1.8785,-1.879,-1.8715,-1.8769,-1.8777,-1.8803,-1.8848,-1.8853,-1.8816,-1.8814,-1.8888,-1.8896,-1.8904,-1.8984,-1.8928,-1.8933,-1.8935,-1.9117,-1.9119,-1.9121,0,0,0,0,0,0,-1.866,-1.8673,-1.8782,-1.8733,-1.8747,-1.8773,-1.8803,-1.8806,-1.8825,-1.8856,-1.886,-1.8831,-1.8887,-1.8898,-1.8957,-1.8987,-1.8935,-1.8939,-1.9114,-1.9117,-1.912,-1.9145,0,0,0,0,0,0,-1.8656,-1.8672,-1.8696,-1.8734,-1.875,-1.8833,-1.8804,-1.8809,-1.8834,-1.8831,-1.8871,-1.8876,-1.8886,-1.895,-1.8962,-1.8993,-1.8943,-1.9111,-1.9115,-1.9119,-1.9141,-1.9148,-1.9154,0,0,0,0,0,-1.865,-1.87,-1.8697,-1.871,-1.8781,-1.8834,-1.8844,-1.8854,-1.8836,-1.8861,-1.8881,-1.8875,-1.8982,-1.8956,-1.8969,-1.9002,-1.911,-1.9114,-1.9119,-1.9138,-1.9147,-1.9154,0,0,0,0,0,0,-1.8665,-1.8705,-1.8702,-1.8766,-1.8797,-1.8833,-1.8865,-1.8863,-1.89,-1.8896,-1.8908,-1.8917,-1.8977,-1.8996,-1.8966,-1.9069,-1.9043,-1.9051,-1.9054,-1.9062,-1.9068,-1.9062,-1.8947,0,0,0,0,0,-1.8675,-1.8715,-1.8748,-1.8801,-1.8817,-1.8838,-1.8862,-1.8868,-1.89,-1.8914,-1.8938,-1.897,-1.9011,-1.9038,-1.9078,-1.9145,-1.9153,-1.9174,-1.9181,-1.9186,-1.9192,-1.9229,-1.9239,-1.9137,-1.9137,-1.9136,0,0,-1.8697,-1.8724,-1.8748,-1.8805,-1.8829,-1.8871,-1.8849,-1.8894,-1.8925,-1.892,-1.8977,-1.8997,-1.9034,-1.9098,-1.9127,-1.9115,-1.9222,-1.9192,-1.9196,-1.9199,-1.9235,-1.9245,-1.9253,-1.914,-1.9139,-1.9139,0,0,-1.8758,-1.8783,-1.883,-1.8855,-1.8893,-1.8908,-1.8919,-1.8956,-1.8969,-1.9026,-1.9024,-1.9062,-1.9133,-1.9159,-1.9182,-1.9257,-1.9252,-1.927,-1.9303,-1.9339,-1.9347,-1.9354,-1.9381,-1.939,-1.9276,-1.9276,-1.9276,0,-1.8781,-1.8843,-1.8854,-1.8899,-1.8924,-1.8923,-1.8971,-1.8996,-1.9045,-1.9062,-1.9049,-1.9138,-1.9163,-1.9233,-1.9251,-1.927,-1.9284,-1.9264,-1.9345,-1.9352,-1.9359,-1.9384,-1.9394,-1.9277,-1.9277,-1.9277,-1.9277,0,-1.8869,-1.8912,-1.8945,-1.8993,-1.9022,-1.9068,-1.9088,-1.9116,-1.912,-1.9136,-1.9196,-1.9226,-1.9272,-1.929,-1.9294,-1.9361,-1.9353,-1.9342,-1.9317,-1.9371,-1.9394,-1.9404,-1.928,-1.9279,-1.9279,-1.9278,0,0,-1.8938,-1.8993,-1.9005,-1.9027,-1.907,-1.9104,-1.9152,-1.9196,-1.9221,-1.9256,-1.9296,-1.9357,-1.9348,-1.9374,-1.9381,-1.9414,-1.9471,-1.9399,-1.94,-1.9411,-1.9547,-1.9553,-1.9564,-1.9469,-1.9471,-1.9472,-1.9543,0,-1.9003,-1.9085,-1.9098,-1.9171,-1.9212,-1.9213,-1.9254,-1.9286,-1.9303,-1.934,-1.936,-1.9402,-1.9387,-1.9403,-1.9435,-1.9457,-1.9498,-1.9452,-1.9506,-1.9508,-1.9495,-1.9577,-1.9584,-1.9649,-1.9553,-1.9554,-1.9556,0,-1.9089,-1.9126,-1.9203,-1.9242,-1.9259,-1.9296,-1.9339,-1.9375,-1.9412,-1.9422,-1.9452,-1.9457,-1.9507,-1.9481,-1.9551,-1.9519,-1.9543,-1.9557,-1.956,-1.9564,-1.9534,-1.9582,-1.967,-1.9679,-1.957,-1.9569,-1.9568,0,-1.9131,-1.9201,-1.9256,-1.9275,-1.9322,-1.9348,-1.9369,-1.9403,-1.943,-1.9468,-1.9486,-1.953,-1.9554,-1.9588,-1.9604,-1.9584,-1.9673,-1.9649,-1.9683,-1.9683,-1.97,-1.9698,-1.9792,-1.9718,-1.9718,-1.9717,-1.9717,0,-1.9201,-1.9248,-1.9276,-1.9309,-1.9363,-1.9378,-1.9431,-1.9451,-1.9482,-1.9521,-1.9525,-1.9561,-1.9581,-1.9621,-1.9635,-1.969,-1.9701,-1.9711,-1.9714,-1.971,-1.9709,-1.9724,-1.972,-1.972,-1.9719,-1.9719,-1.9718,0,-1.9256,-1.9276,-1.9337,-1.9377,-1.9388,-1.9426,-1.946,-1.9494,-1.9512,-1.9561,-1.9573,-1.9602,-1.9649,-1.9669,-1.9727,-1.9736,-1.98,-1.98,-1.9787,-1.9788,-1.9821,-1.9817,-1.9926,-1.9941,-1.9858,-1.9859,-1.986,0,-1.9298,-1.9334,-1.9379,-1.9405,-1.9426,-1.9468,-1.9496,-1.9514,-1.9542,-1.9588,-1.9616,-1.9663,-1.9702,-1.9777,-1.9803,-1.9848,-1.9849,-1.9884,-1.9855,-1.985,-1.9848,-1.9845,-1.9849,-1.9888,-1.9889,-1.989,-1.989,0,-1.9371,-1.938,-1.9419,-1.9463,-1.9496,-1.9531,-1.9566,-1.9587,-1.961,-1.9643,-1.9691,-1.9721,-1.9781,-1.9828,-1.9874,-1.9897,-1.9898,-1.99,-1.991,-1.9905,-1.9896,-1.9901,-1.98,-1.9897,-1.9896,-1.9895,-1.9895,-1.9895,-1.942,-1.9453,-1.9489,-1.9534,-1.9562,-1.9595,-1.9628,-1.9651,-1.9691,-1.9741,-1.975,-1.9801,-1.9839,-1.9902,-1.9926,-1.9967,-1.9958,-1.9973,-1.9977,-1.998,-1.9982,-1.9891,-1.9976,-1.9976,-1.9976,-1.9976,-1.9975,0,-1.9492,-1.9517,-1.9557,-1.9606,-1.9641,-1.964,-1.9679,-1.9708,-1.9754,-1.9788,-1.9827,-1.9883,-1.9929,-1.996,-2.0007,-2.0034,-2.0035,-2.0045,-2.0043,-2.0048,-1.9987,-1.9973,-2.0043,-2.0043,-2.0043,-2.0043,-2.0043,-2.0043,-1.9534,-1.9589,-1.9603,-1.9673,-1.9697,-1.9747,-1.9769,-1.98,-1.9828,-1.989,-1.9929,-1.9949,-1.9982,-2.0032,-2.0075,-2.0083,-2.01,-2.011,-2.0117,-2.0059,-2.0052,-2.0045,-2.0032,-2.0114,-2.0114,-2.0175,-2.0175,-2.0175]},{"header":{"parameterUnit":"m.s-1","parameterCategory":1,"la1":30.2991,"la2":30.254,"lo1":-89.0895,"lo2":-89.0444,"dy":0.0017,"dx":0.0017,"nx":28,"ny":28,"refTime":"2026-01-05T09:00:00:Z","depth":0,"parameterNumber":3,"parameterNumberName":"V-component_of_WINDS"},"data":[0,0,0,0,0,0,0,0,0,0,0,0,0,0,0,0,0,0,0,0,0,0,0,0,0,0,0,0,0,0,0,0,0,0,0,0,0,0,0,0,0,0,0,0,0,0,0,0,0,0,0,0,0,0,0,0,0,0,0.3588,0.3589,0,0.3704,0.3705,0.3707,0.381,0.3811,0.3812,0.3813,0.3934,0.3936,0.3938,0,0,0,0,0,0,0,0,0,0,0,0,0,0.3458,0.346,0.3588,0.3589,0.3591,0.3704,0.3705,0.3707,0.3809,0.3811,0.3812,0.3814,0.3934,0.3936,0.3939,0,0,0,0,0,0,0,0,0,0,0,0,0,0.3538,0.346,0.3587,0.3655,0.3663,0.3703,0.3705,0.3707,0.3809,0.3811,0.3813,0.3814,0.3933,0.3936,0.3939,0.3922,0,0,0.3949,0.395,0,0,0,0,0,0,0,0,0.3533,0.3543,0.3644,0.3651,0.3659,0.3744,0.3704,0.378,0.3809,0.3754,0.3813,0.3815,0.387,0.3878,0.3896,0.3928,0.3933,0.3949,0.3951,0.3952,0.3953,0,0,0,0,0,0,0,0.3528,0.3538,0.3634,0.3645,0.3654,0.3681,0.3694,0.3719,0.38,0.3759,0.3766,0.3779,0.3874,0.3893,0.39,0.3935,0.3949,0.3952,0.3954,0.3955,0.3962,0.396,0,0,0,0,0,0,0.3511,0.3533,0.363,0.3637,0.3599,0.3682,0.3697,0.3715,0.38,0.3815,0.3777,0.3783,0.3886,0.3896,0.3904,0.3892,0.3952,0.3955,0.3957,0.3963,0.3961,0.3959,0,0,0,0,0,0,0.3508,0.3519,0.3625,0.3587,0.3603,0.3682,0.3702,0.3716,0.3735,0.3814,0.3829,0.3781,0.3888,0.39,0.3917,0.3897,0.3957,0.3959,0.3965,0.3963,0.396,0.3865,0,0,0,0,0,0,0.3504,0.3517,0.3511,0.3586,0.3604,0.3635,0.37,0.3717,0.374,0.3749,0.3822,0.3835,0.3891,0.3912,0.3921,0.3903,0.3962,0.3967,0.3964,0.3961,0.387,0.3859,0.385,0,0,0,0,0,0.3499,0.3479,0.351,0.3521,0.3598,0.3634,0.3644,0.3707,0.3738,0.3733,0.3784,0.3833,0.3898,0.3913,0.3923,0.3906,0.3969,0.3965,0.3961,0.3875,0.3862,0.385,0,0,0,0,0,0,0.34,0.3491,0.3525,0.353,0.3573,0.3651,0.3646,0.3691,0.3728,0.3734,0.3812,0.3828,0.3837,0.3874,0.3889,0.3896,0.394,0.3938,0.3871,0.3859,0.3849,0.384,0.3964,0,0,0,0,0,0.3378,0.3399,0.3478,0.3474,0.3494,0.3566,0.3584,0.3629,0.3678,0.3697,0.3749,0.3795,0.3826,0.3845,0.3878,0.3876,0.3894,0.387,0.386,0.3851,0.3848,0.3852,0.3842,0.3947,0.3947,0.3947,0,0,0.3334,0.3386,0.3395,0.3455,0.3494,0.3515,0.3581,0.36,0.3616,0.37,0.3719,0.376,0.3816,0.3824,0.3831,0.3855,0.3824,0.3846,0.3839,0.3841,0.3847,0.3837,0.3828,0.3944,0.3945,0.3945,0,0,0.3265,0.3306,0.3307,0.3345,0.3404,0.3452,0.3452,0.3524,0.3554,0.3575,0.3639,0.366,0.3711,0.3749,0.3775,0.3722,0.3769,0.373,0.3678,0.368,0.3672,0.3665,0.3646,0.3639,0.3728,0.3727,0.3727,0,0.3202,0.3235,0.3303,0.3318,0.3343,0.342,0.3423,0.3457,0.3523,0.3539,0.3566,0.3633,0.3676,0.3695,0.3682,0.37,0.3704,0.3722,0.3667,0.3661,0.3656,0.3639,0.3632,0.3722,0.3723,0.3723,0.3724,0,0.3156,0.3178,0.3173,0.3234,0.3259,0.3268,0.3338,0.3356,0.3399,0.3445,0.3466,0.3521,0.3567,0.3575,0.3618,0.3601,0.3614,0.3653,0.3699,0.364,0.3625,0.3619,0.3715,0.3717,0.3718,0.372,0,0,0.3026,0.3126,0.3123,0.3152,0.3223,0.3242,0.3255,0.3299,0.3313,0.3357,0.337,0.3413,0.345,0.3479,0.3527,0.3529,0.3484,0.3568,0.3571,0.3551,0.347,0.344,0.3431,0.3516,0.3515,0.3514,0.3465,0,0.2968,0.2995,0.3057,0.3065,0.3087,0.3161,0.3173,0.3218,0.3262,0.3288,0.3337,0.3366,0.3412,0.3431,0.3436,0.3488,0.3469,0.3493,0.353,0.3531,0.3513,0.3423,0.3392,0.3342,0.346,0.3459,0.3458,0,0.2903,0.2942,0.2952,0.3023,0.3034,0.3043,0.309,0.3113,0.3167,0.3199,0.3232,0.3285,0.3305,0.3348,0.3376,0.3391,0.3411,0.3439,0.3439,0.3444,0.349,0.3427,0.3328,0.332,0.345,0.3451,0.3451,0,0.2808,0.2862,0.2876,0.2899,0.2981,0.2986,0.3021,0.3077,0.31,0.3141,0.3157,0.32,0.3223,0.3256,0.332,0.3345,0.3342,0.339,0.337,0.3368,0.3365,0.3364,0.3268,0.3377,0.3378,0.3378,0.3378,0,0.2736,0.2739,0.2834,0.2842,0.2848,0.2921,0.2926,0.2968,0.3017,0.3035,0.3103,0.3119,0.3202,0.3229,0.3279,0.3295,0.3306,0.3333,0.3346,0.3327,0.3323,0.334,0.3345,0.3376,0.3376,0.3377,0.3377,0,0.2629,0.2693,0.2712,0.2789,0.2809,0.281,0.2877,0.2889,0.2937,0.296,0.2969,0.3046,0.308,0.3147,0.3201,0.3235,0.324,0.3264,0.3222,0.323,0.3206,0.3207,0.3117,0.3109,0.3223,0.3222,0.3221,0,0.2579,0.2583,0.2661,0.2678,0.271,0.2737,0.2761,0.2833,0.2856,0.2918,0.2922,0.2962,0.2998,0.305,0.3111,0.3153,0.3178,0.3143,0.3184,0.3165,0.3178,0.3176,0.3178,0.3134,0.3132,0.3131,0.313,0,0.2484,0.2515,0.2547,0.259,0.2616,0.2654,0.2695,0.2706,0.2788,0.281,0.2846,0.2874,0.2929,0.2968,0.3019,0.3057,0.3107,0.3116,0.3114,0.3094,0.3069,0.3083,0.3196,0.3118,0.3119,0.312,0.3121,0.3121,0.2404,0.2412,0.2468,0.2501,0.254,0.2577,0.2592,0.2642,0.2673,0.2723,0.2765,0.2797,0.2853,0.2927,0.2961,0.2989,0.3013,0.3009,0.3009,0.3006,0.2999,0.3065,0.2999,0.2999,0.2999,0.3,0.3,0,0.2312,0.2352,0.2382,0.2438,0.2464,0.2509,0.2558,0.2577,0.2605,0.2652,0.2686,0.2729,0.2767,0.2832,0.2876,0.2886,0.2911,0.2895,0.2895,0.2903,0.2974,0.2972,0.2875,0.2875,0.2875,0.2875,0.2875,0.2875,0.2267,0.2283,0.2321,0.2357,0.2398,0.243,0.2454,0.2489,0.2527,0.2571,0.2604,0.2645,0.27,0.2749,0.2787,0.2806,0.2819,0.2796,0.2822,0.2887,0.2898,0.2909,0.2908,0.2799,0.2799,0.2749,0.2748,0.2748]}]]